Wetbulb
53.84 54.07 52.60 53.26 53.24 54.43 53.45 55.16 55.79 55.27 55.85 54.58 53.53 53.01 52.97 52.55 51.67 50.16 48.78 48.13 47.34 46.42 45.57 44.76 44.28 43.93 44.04
51.97 51.98 51.91 52.84 53.05 52.70 52.63 54.37 55.18 54.04 54.57 53.79 53.02 52.48 52.45 51.42 50.40 49.51 48.38 47.48 46.75 45.28 44.42 43.49 42.99 42.62 42.86
50.77 52.21 52.03 51.90 51.33 51.92 51.66 52.38 53.67 52.17 53.87 53.19 52.80 52.43 51.65 50.67 49.65 48.67 47.75 47.25 46.33 44.37 43.20 42.30 41.74 41.30 41.35
51.18 51.01 50.98 50.88 50.98 49.37 48.75 51.00 50.89 52.83 52.02 51.51 51.65 51.24 50.97 50.25 48.73 47.23 46.64 46.46 45.43 43.97 42.49 41.22 40.56 40.14 39.86
50.34 50.45 49.76 48.77 48.65 49.37 47.99 49.15 49.91 51.09 49.99 49.66 49.64 49.12 49.03 49.18 46.89 46.06 46.23 46.11 45.18 43.80 42.37 40.92 39.82 39.52 38.72
50.37 49.55 49.59 49.18 50.05 48.88 47.48 47.52 45.22 49.20 48.67 46.73 48.72 46.97 47.23 47.00 47.04 46.49 46.23 45.76 44.81 43.67 42.49 41.24 39.88 39.06 38.40
50.73 50.52 49.88 50.22 50.55 48.59 47.93 47.62 46.33 46.71 48.26 45.02 46.39 45.11 46.17 46.13 46.94 46.41 46.15 45.50 44.74 44.04 42.83 41.63 40.33 38.95 38.27
53.05 52.45 52.32 52.06 51.62 50.13 48.97 47.11 43.42 47.47 48.22 41.52 42.37 42.61 44.41 44.92 46.86 46.39 46.06 45.43 44.61 44.08 42.92 41.96 40.45 39.27 38.22
51.21 50.98 50.54 50.98 51.62 50.48 47.08 44.33 40.04 44.10 47.46 39.86 40.05 39.21 42.39 42.16 44.59 46.36 45.94 45.40 44.72 44.28 42.98 41.91 40.53 39.35 36.52
50.00 49.54 49.98 50.47 49.11 50.56 48.10 45.43 43.14 37.43 45.84 41.49 41.09 36.95 35.77 37.68 41.80 44.58 44.48 45.49 45.03 44.31 43.64 42.50 40.93 31.88 29.42
49.90 50.56 50.60 50.79 50.35 50.41 49.00 47.86 44.17 35.69 42.70 44.01 38.13 39.04 36.12 34.19 37.02 42.11 43.22 43.09 42.45 42.53 43.59 42.87 41.19 34.20 28.64
48.58 48.33 48.34 49.05 49.78 49.93 48.49 48.62 47.87 42.24 43.90 45.52 36.33 41.88 40.80 32.89 33.27 36.87 41.24 41.88 41.48 39.77 39.39 41.63 41.53 38.92 36.00
46.50 46.84 48.18 49.57 49.84 48.58 45.57 39.06 38.16 39.94 45.10 45.40 37.20 41.60 41.39 38.04 32.06 34.30 36.23 38.18 40.33 38.86 38.14 38.10 37.25 36.00 33.50
46.81 46.66 47.28 47.33 46.82 45.43 43.13 40.11 36.52 33.92 37.20 41.27 37.31 40.39 33.28 28.94 29.67 33.54 35.37 34.39 38.14 38.12 37.22 36.85 35.38 34.70 31.41
45.51 44.05 43.98 44.49 43.69 43.22 41.49 40.54 38.76 35.55 33.50 34.21 35.01 34.23 33.12 32.60 32.35 34.05 34.91 32.28 37.55 36.74 35.16 33.15 32.28 31.78 30.55
44.31 43.96 43.01 43.01 41.09 40.61 39.65 41.94 37.55 37.22 35.13 33.76 33.97 33.26 31.54 31.53 34.24 32.94 34.01 31.91 35.35 34.98 34.85 31.36 27.65 27.77 28.71
43.26 43.25 42.69 42.13 40.37 38.26 38.98 39.88 36.68 36.37 35.21 34.43 35.84 36.56 33.43 32.88 28.58 34.54 30.99 27.34 33.26 32.45 31.91 30.97 28.47 26.31 26.53
MSLP
1017.32 1018.44 1019.34 1019.89 1021.09 1021.80 1022.75 1023.83 1024.54 1025.02 1025.68 1026.51 1026.89 1028.08 1029.09 1029.64 1030.12 1030.66 1031.09 1031.44 1031.71 1032.11 1032.38 1032.60 1032.74 1032.81 1032.82
1016.62 1017.75 1018.77 1019.37 1020.05 1021.23 1022.26 1023.11 1024.09 1024.88 1025.45 1026.24 1026.76 1027.15 1028.36 1029.25 1029.94 1030.53 1030.90 1031.30 1031.65 1032.12 1032.51 1032.73 1032.86 1032.99 1033.06
1015.18 1016.99 1018.22 1019.19 1020.14 1020.86 1021.90 1022.69 1023.74 1024.59 1025.26 1026.03 1026.63 1027.21 1027.97 1028.60 1029.59 1030.25 1030.69 1031.21 1031.65 1032.08 1032.51 1032.77 1032.92 1033.10 1033.23
1014.44 1015.95 1017.18 1018.53 1019.38 1020.16 1021.59 1022.24 1023.45 1024.34 1025.08 1025.77 1026.48 1027.05 1027.80 1028.46 1028.97 1029.73 1030.40 1030.89 1031.49 1031.98 1032.39 1032.72 1032.95 1033.21 1033.33
1013.46 1015.05 1016.15 1017.49 1018.53 1019.74 1020.60 1021.88 1022.87 1023.60 1024.81 1025.58 1026.34 1027.02 1027.61 1028.17 1028.71 1029.13 1029.90 1030.56 1031.22 1031.67 1032.15 1032.70 1032.97 1033.25 1033.39
1011.80 1013.04 1014.47 1015.90 1017.34 1018.76 1019.97 1021.11 1022.56 1023.25 1024.06 1025.24 1025.71 1026.52 1027.11 1027.72 1028.26 1028.94 1029.43 1030.02 1030.84 1031.29 1031.86 1032.47 1032.86 1033.18 1033.37
1009.51 1011.11 1012.99 1014.24 1015.72 1017.76 1018.96 1019.64 1020.54 1022.04 1023.04 1024.59 1025.43 1026.05 1026.47 1027.10 1027.67 1028.35 1029.00 1029.38 1030.27 1030.94 1031.45 1032.06 1032.58 1033.00 1033.26
1008.17 1008.94 1010.83 1012.29 1013.54 1014.95 1016.66 1018.90 1020.62 1021.63 1022.18 1023.71 1024.68 1025.40 1026.04 1026.51 1027.05 1027.69 1028.31 1028.88 1029.52 1030.56 1031.08 1031.65 1032.17 1032.67 1033.05
1007.76 1008.66 1010.00 1010.87 1012.12 1014.83 1016.88 1018.62 1020.14 1020.71 1021.22 1022.41 1023.98 1025.11 1025.75 1026.21 1026.54 1027.04 1027.70 1028.24 1028.65 1029.55 1030.54 1031.15 1031.77 1032.47 1032.92
1008.03 1009.10 1009.97 1011.11 1012.47 1013.10 1013.97 1016.05 1018.41 1020.29 1020.10 1021.25 1022.97 1024.23 1025.71 1025.85 1026.06 1026.43 1027.14 1027.74 1028.32 1028.57 1029.47 1030.29 1031.11 1032.34 1033.11
1007.10 1008.20 1009.49 1010.74 1011.83 1012.96 1013.79 1014.48 1016.20 1017.36 1018.00 1019.33 1021.58 1022.93 1023.95 1025.17 1025.58 1025.79 1026.27 1026.98 1027.74 1028.51 1029.18 1029.82 1030.43 1031.53 1032.70
1005.80 1007.22 1008.23 1009.85 1010.85 1012.16 1013.10 1013.88 1014.82 1015.69 1016.92 1017.86 1020.11 1020.87 1022.38 1024.37 1025.00 1025.37 1025.66 1026.23 1027.05 1027.81 1028.58 1029.27 1029.95 1030.77 1031.56
1004.65 1005.86 1006.84 1008.57 1010.13 1011.66 1012.84 1014.05 1015.34 1016.26 1016.86 1017.50 1018.76 1019.92 1020.99 1022.39 1023.86 1024.60 1025.45 1025.78 1026.22 1027.07 1027.92 1028.56 1029.22 1030.19 1031.13
1003.49 1004.95 1006.51 1008.06 1009.36 1010.72 1012.16 1013.80 1015.42 1017.11 1017.41 1017.28 1018.46 1019.05 1020.93 1021.77 1022.62 1023.96 1024.47 1025.12 1025.59 1026.33 1027.23 1028.08 1028.76 1029.27 1030.14
1002.66 1004.05 1005.94 1007.40 1009.03 1010.08 1011.49 1013.01 1014.25 1016.09 1017.40 1018.29 1018.74 1019.40 1020.23 1020.97 1022.23 1022.84 1023.90 1024.69 1024.96 1025.69 1026.65 1027.54 1028.35 1028.83 1029.62
1001.89 1003.38 1005.01 1006.44 1008.36 1009.77 1010.94 1011.74 1013.68 1015.18 1016.51 1017.41 1018.58 1019.88 1020.96 1021.55 1021.31 1021.93 1023.21 1024.17 1024.68 1025.41 1026.02 1027.12 1028.25 1028.81 1029.05
1001.37 1002.86 1004.11 1005.90 1007.47 1008.87 1010.24 1011.19 1013.27 1014.51 1015.69 1016.51 1017.38 1018.42 1020.06 1020.66 1021.34 1021.31 1022.08 1023.56 1024.31 1025.23 1025.86 1026.26 1027.25 1028.19 1028.60
Wind_Speed
7 13 13 14 17 15 13 12 11 13 23 23 24 20 13 14 15 15 14 13 11 10 8 7 7 7 7
11 14 16 16 19 16 12 11 10 13 23 22 20 26 23 19 17 15 14 13 12 10 9 7 6 6 6
12 13 13 12 15 14 13 13 8 16 22 22 21 22 23 23 19 17 15 13 12 12 10 8 7 6 5
14 14 14 15 14 14 12 11 10 10 14 16 18 22 22 21 21 19 15 15 14 13 11 10 9 7 6
15 13 15 15 16 12 13 11 10 9 9 9 10 10 11 17 15 20 19 16 15 14 13 11 10 8 6
15 17 19 18 17 14 12 14 10 5 11 7 10 9 9 9 16 18 19 19 16 16 14 13 11 9 8
23 22 21 22 20 18 16 17 12 8 11 9 8 9 8 9 20 21 20 20 18 16 16 14 12 10 9
24 25 23 25 24 23 23 12 6 10 12 7 5 5 7 7 21 22 22 21 21 17 16 15 14 12 11
25 26 25 32 27 16 14 13 7 9 13 6 5 4 7 6 9 22 23 23 23 22 19 17 16 14 9
16 16 18 23 27 22 21 20 13 3 10 10 8 6 3 3 7 10 11 21 20 23 22 21 19 5 4
17 14 15 17 17 16 17 16 16 5 10 11 5 7 3 4 3 8 10 10 10 12 19 20 21 13 5
15 14 15 16 17 16 17 13 13 6 16 16 6 12 11 4 4 4 7 9 9 10 9 15 21 20 13
15 16 16 17 18 14 11 9 8 8 14 13 6 12 10 8 6 5 6 6 9 10 9 10 9 8 8
16 14 13 14 13 12 12 10 7 3 1 10 8 13 5 3 5 7 6 6 9 9 9 9 7 8 8
14 14 13 14 10 12 12 11 8 9 5 3 6 7 4 10 5 8 9 3 8 9 8 8 6 8 8
14 15 15 14 12 11 11 13 11 10 8 6 8 6 3 4 3 9 7 6 5 9 8 7 6 5 7
15 15 15 14 18 13 13 12 10 9 10 9 12 10 8 8 1 5 9 4 9 8 8 4 6 7 7
Wind_Direction
158 161 157 159 165 167 163 175 185 180 158 160 155 148 166 153 157 164 167 168 159 153 141 123 104 90 78
158 166 165 173 169 168 170 170 178 168 164 165 167 160 161 163 164 168 173 176 168 161 150 133 119 101 84
155 169 167 165 170 161 174 166 161 165 167 170 169 166 168 164 165 170 173 172 171 167 159 149 135 114 101
162 167 165 171 173 164 168 167 156 166 171 173 168 169 169 170 168 169 173 174 179 173 167 161 150 139 120
165 166 172 168 175 173 171 168 166 160 164 171 168 172 177 177 177 172 171 175 181 180 177 173 166 156 137
166 174 176 170 173 174 169 166 170 197 159 169 173 179 178 178 178 182 177 172 183 186 182 183 176 170 155
175 175 173 176 170 174 180 181 180 165 166 176 177 181 177 180 180 181 184 174 180 188 187 186 183 182 167
182 174 178 174 178 176 179 163 95 158 169 165 172 173 175 181 186 185 185 182 172 188 191 188 188 188 177
179 179 177 179 171 161 165 160 159 184 190 114 179 126 176 180 189 190 191 188 180 179 189 190 189 191 185
167 168 165 175 173 177 167 177 164 141 190 159 158 143 165 198 186 191 194 195 192 181 184 186 185 140 161
169 166 168 176 178 181 183 177 178 173 188 156 151 158 122 132 175 190 188 185 185 186 188 186 183 162 167
165 168 164 176 177 180 180 180 190 157 167 169 146 172 178 142 165 174 188 180 179 176 175 185 187 177 181
167 168 169 171 174 170 148 103 94 133 172 174 150 180 175 170 148 160 153 186 177 171 172 177 174 173 176
165 158 155 164 167 159 156 144 124 91 160 160 147 160 138 131 126 158 161 173 174 174 169 173 168 172 161
159 152 153 155 160 155 153 157 147 148 141 109 93 97 93 151 136 161 169 151 180 166 159 163 173 168 166
156 157 157 157 157 155 157 163 156 161 155 147 140 118 82 22 68 154 162 161 165 164 160 157 163 173 167
158 162 157 160 158 156 165 157 153 159 161 155 165 166 174 188 142 211 151 151 149 160 165 156 163 176 164